#timestamp,LO_Frequency,Hit,StdDev 
1711098015.7,286046973.3,P
1711098035.5,286046972.1,Y
1711098055.4,286046987.6,P
1711098075.2,286046985.3,P
1711098095.0,286046985.9,P
1711098095.9,286046985.9,Y
1711098115.8,286047000.1,P
1711098135.6,286047000.2,N
1711098155.4,286046998.3,N
1711098175.3,286047000.5,N
1711098195.1,286047000.4,N
1711098215.9,286046999.4,N
1711098235.7,286046998.8,N
1711098255.5,286046996.9,N
1711098275.4,286046993.3,N
1711098295.2,286046996.3,N
1711098315.0,286046995.8,N
1711098315.9,286046995.8,N
1711098335.8,286046995.5,N
1711098355.6,286046995.6,N
1711098375.5,286046994.9,N
1711098395.3,286046999.1,N
1711098415.1,286046994.9,N
1711098435.9,286046994.9,N
1711098455.7,286046994.9,N
1711098475.5,286046997.0,N
1711098495.4,286046996.4,N
1711098515.2,286046992.8,N
1711098535.1,286046989.7,Y
1711098536.0,286046989.7,P
1711098555.8,286046991.0,N
1711098575.6,286046988.5,P
1711098595.5,286046988.7,Y
1711098615.3,286046994.4,P
1711098635.2,286046990.4,P
1711098655.9,286046991.2,P
1711098675.7,286046993.7,Y
1711098695.6,286047004.4,P
1711098715.4,286047002.2,N
1711098735.2,286047002.4,N
1711098755.1,286046999.9,N
1711098756.0,286046999.9,N
1711098775.8,286047000.7,N
1711098795.7,286046999.9,N
1711098815.5,286047002.5,N
1711098835.3,286047002.0,N
1711098855.2,286046998.4,N
1711098875.9,286046997.1,N
1711098895.7,286046998.3,N
1711098915.6,286047003.3,N
1711098935.4,286047001.9,N
1711098955.3,286046995.5,N
1711098975.1,286046994.4,N
1711098976.0,286046994.4,N
1711098995.8,286046991.7,N
1711099015.7,286046988.9,N
1711099035.5,286046988.3,N
1711099055.3,286046988.0,N
1711099075.2,286046989.7,N
1711099095.0,286046990.7,N
1711099095.9,286046990.7,N
1711099115.8,286046991.4,N
1711099135.6,286046987.1,N
1711099155.4,286046985.4,N
1711099175.3,286046982.2,Y
1711099195.1,286046990.0,P
1711099215.9,286046989.3,P
1711099235.7,286046988.9,P
1711099255.5,286046983.7,Y
1711099275.4,286046992.3,P
1711099295.2,286046996.3,P
1711099315.0,286046993.3,N
1711099316.0,286046993.3,Y
1711099335.8,286047007.6,P
1711099355.6,286047007.7,N
1711099375.5,286047006.3,N
1711099395.3,286047002.9,N
1711099415.1,286047001.7,N
1711099435.9,286047002.3,N
1711099455.7,286047002.2,N
1711099475.6,286047001.4,N
1711099495.4,286047004.0,N
1711099515.2,286047003.3,N
1711099535.1,286047006.2,N
1711099536.0,286047006.2,N
1711099555.8,286047010.0,N
1711099575.7,286047011.4,N
1711099595.5,286047014.8,Y
1711099615.3,286047012.0,P
1711099635.2,286047009.7,N
1711099655.0,286047014.6,P
1711099655.9,286047014.6,Y
1711099675.8,286047004.2,P
1711099695.6,286047001.3,N
1711099715.4,286047002.9,N
1711099735.3,286047011.2,Y
1711099755.1,286047010.6,P
1711099775.9,286047008.3,N
1711099795.7,286047002.4,N
1711099815.5,286046998.9,N
1711099835.4,286046993.5,N
1711099855.2,286046987.7,N
1711099875.0,286046985.3,N
1711099875.9,286046985.3,N
1711099895.8,286046986.4,N
1711099915.6,286046988.1,N
1711099935.5,286046985.7,N
1711099955.3,286046989.9,N
1711099975.1,286046989.8,N
1711099995.9,286046991.2,N
1711100015.7,286046994.8,N
1711100035.5,286046996.6,N
1711100055.4,286046998.8,N
1711100075.2,286046997.5,N
1711100095.0,286046991.1,N
1711100096.0,286046991.1,N
1711100115.8,286046992.6,N
1711100135.6,286047002.6,N
1711100155.5,286047004.8,N
1711100175.3,286047003.5,N
1711100195.1,286046999.5,N
1711100215.9,286046995.9,N
1711100235.7,286046992.2,N
1711100255.6,286046992.1,N
1711100275.4,286046994.9,N
1711100295.2,286046997.1,N
1711100315.1,286047011.9,N
1711100316.0,286046995.1,N
1711100335.8,286046997.2,N
1711100355.7,286046996.0,N
1711100375.5,286046990.7,N
1711100395.3,286046990.0,N
1711100415.2,286046987.1,N
1711100435.9,286046988.4,N
1711100455.7,286046984.8,N
1711100475.6,286046987.9,N
1711100495.4,286046988.3,N
1711100515.2,286046988.4,N
1711100535.1,286046987.2,N
1711100536.0,286046987.2,N
1711100555.8,286046990.0,N
1711100575.7,286046987.2,N
1711100595.5,286046988.3,N
1711100615.3,286046986.0,N
1711100635.2,286046984.1,N
1711100655.0,286046983.7,N
1711100655.9,286046983.7,N
1711100675.8,286046989.0,N
1711100695.6,286046997.3,N
1711100715.4,286046997.0,N
1711100735.3,286046992.1,N
1711100755.1,286046992.7,N
1711100775.8,286046990.8,N
1711100795.7,286046990.4,N
1711100815.5,286046989.5,N
1711100835.4,286046988.3,N
1711100855.2,286046985.3,N
1711100875.0,286046987.2,Y
1711100875.9,286046987.2,P
1711100895.8,286046997.5,N
1711100915.6,286046990.1,N
1711100935.5,286046991.2,N
1711100955.3,286046993.0,N
1711100975.1,286046999.6,N
1711100995.9,286046997.3,N
1711101015.7,286046995.0,N
1711101035.5,286046996.2,N
1711101055.4,286046990.7,N
1711101075.2,286046991.0,N
1711101095.1,286046990.7,N
1711101096.0,286046990.7,N
1711101115.8,286046992.7,N
1711101135.6,286046990.8,N
1711101155.5,286046987.4,Y
1711101175.3,286046992.7,P
1711101195.2,286046989.3,P
1711101215.9,286046987.7,P
1711101235.7,286046986.1,Y
1711101255.6,286046999.0,P
1711101275.4,286047007.2,N
1711101295.3,286047004.3,N
1711101315.1,286047003.8,N
1711101316.0,286047003.8,N
1711101335.8,286046998.1,N
1711101355.7,286046998.9,N
1711101375.5,286047000.0,N
1711101395.3,286046996.8,N
1711101415.2,286046999.9,N
1711101435.0,286047007.0,N
1711101435.9,286047007.0,N
1711101455.8,286047005.4,N
1711101475.6,286047002.4,N
1711101495.4,286047003.4,N
1711101515.3,286047005.1,N
1711101535.1,286047004.3,N
1711101555.8,286047003.2,N
1711101575.7,286047001.6,N
1711101595.5,286047002.3,N
